DTUSAT 1 27842U 03031C 12034.96576038 +.00000172 +00000-0 +99176-4 0 03231 2 27842 098.6962 045.8366 0008575 225.5406 134.5070 14.21236033445947 CUTE-1 1 27844U 03031E 12034.57353156 +.00000192 +00000-0 +10900-3 0 03020 2 27844 098.7048 044.9058 0009012 251.3505 108.6688 14.20956031445771 QUAKESAT 1 27845U 03031F 12034.96455762 +.00000283 +00000-0 +15176-3 0 03302 2 27845 098.7145 045.0428 0008244 272.2661 087.7572 14.20667141445707 AAU CUBESAT 1 27846U 03031G 12034.96622246 +.00000191 +00000-0 +10761-3 0 02049 2 27846 098.6961 045.8253 0008386 225.5405 134.5087 14.21235110445947 CANX-1 1 27847U 03031H 12034.56773880 +.00000147 +00000-0 +87510-4 0 02179 2 27847 098.6959 045.4096 0008388 229.2485 130.7968 14.21206208445837 CUBESAT XI-IV 1 27848U 03031J 12034.55406437 +.00000172 +00000-0 +99945-4 0 02511 2 27848 098.7136 044.1627 0008750 255.8552 104.1668 14.20716800445717 UWE-1 1 28892U 05043C 12034.65818220 +.00000518 +00000-0 +11588-3 0 01456 2 28892 097.9356 265.5923 0016304 211.9498 148.0710 14.60447418334134 CUBESAT XI-V 1 28895U 05043F 12034.87578731 +.00000614 +00000-0 +13565-3 0 00917 2 28895 097.9352 266.9085 0016904 210.6542 149.3719 14.60470854334053 SSETI-EXPRESS DEB 1 28897U 05043H 12034.60152881 .00000706 00000-0 15391-3 0 6630 2 28897 097.9351 266.5418 0015857 211.7378 148.2841 14.60695548326329 CUTE 1.7 (Decayed 2009-10-25) 1 28941U 06005C 09297.68475575 .14491492 29743-5 25760-3 0 5565 2 28941 098.0955 138.9518 0011688 319.8691 040.7485 16.46998778207909 GENESAT (Decayed 2010-08-04) 1 29655U 06058C 10216.61700559 .10637092 69904-5 33715-3 0 2265 2 29655 040.0059 067.3006 0005079 297.8744 064.7087 16.44862838207776 MAST 1 31126U 07012K 12034.97012587 +.00000321 +00000-0 +81812-4 0 03817 2 31126 097.8811 053.9015 0094215 168.4163 191.9238 14.54023715254761 LIBERTAD 1 1 31128U 07012M 12034.71085645 -.00000046 00000-0 00000+0 0 4413 2 31128 097.8891 050.0593 0101750 181.5516 178.5394 14.52701813254451 CP3 1 31129U 07012N 12035.48434813 .00000564 00000-0 13854-3 0 857 2 31129 097.8874 051.1307 0101019 178.4216 181.7365 14.52877939254567 CAPE 1 1 31130U 07012P 12034.68470880 +.00000514 +00000-0 +12747-3 0 03874 2 31130 097.8894 050.1113 0101706 181.3717 178.7191 14.52756992254240 CP4 1 31132U 07012Q 12034.61712648 +.00000442 +00000-0 +10579-3 0 03961 2 31132 097.8770 058.4032 0085107 155.2209 205.3110 14.55838228254871 CANX-6 1 32784U 08021B 12034.71739722 .00000448 00000-0 62859-4 0 2211 2 32784 097.8188 098.0407 0016423 135.8836 224.3691 14.82058020203771 CUTE-1.7+APD II 1 32785U 08021C 12034.68883003 +.00001223 +00000-0 +15794-3 0 02217 2 32785 097.8183 098.8391 0015520 138.8314 221.4059 14.82662230203835 COMPASS 1 1 32787U 08021E 12034.73110611 +.00001416 +00000-0 +17839-3 0 02152 2 32787 097.8188 098.9837 0016097 137.7316 222.5148 14.83472531203877 AAUSAT CUBESAT 2 1 32788U 08021F 12034.72785896 +.00001459 +00000-0 +18238-3 0 02066 2 32788 097.8203 099.2922 0016365 137.9821 222.2662 14.83747881203899 DELFI C3 1 32789U 08021G 12034.75852094 +.00003087 +00000-0 +36844-3 0 02214 2 32789 097.8302 100.8817 0015860 136.1354 224.1097 14.84877910203928 CANX-2 1 32790U 08021H 12034.71632357 +.00000615 +00000-0 +82782-4 0 02149 2 32790 097.8164 098.6071 0015988 139.0342 221.2065 14.82570763203817 SEEDS 1 32791U 08021J 12034.80716732 .00001355 00000-0 17285-3 0 2079 2 32791 097.8205 098.8971 0016484 136.4443 223.8070 14.82984967203820 CP6 (Decayed 2011-10-06) 1 35003U 09028C 11276.79285837 .02274821 58283-2 19360-2 0 8114 2 35003 040.4398 174.3672 0011414 274.3918 085.3844 16.13812532134570 HAWKSAT 1 (Decayed 2011-09-04) 1 35004U 09028D 11247.64656856 .16152067 73217-5 10011-2 0 7842 2 35004 040.4403 342.9642 0002956 038.0069 322.2231 16.41039951130139 AEROCUBE 3 (Decayed 2011-01-06) 1 35005U 09028E 11006.09222617 .14049365 73043-5 82692-3 0 6103 2 35005 040.4461 021.7975 0025578 084.1677 280.7191 16.39196088 92544 SWISSCUBE 1 35932U 09051B 12034.70449947 +.00005301 +00000-0 +12986-2 0 03925 2 35932 098.3375 138.3465 0008716 156.2317 203.9156 14.52845655125331 BEESAT 1 35933U 09051C 12035.27837597 .00007907 00000-0 19109-2 0 5606 2 35933 098.3326 139.2861 0006735 164.8614 195.2321 14.53340322125465 UWE-2 1 35934U 09051D 12034.71850153 +.00003343 +00000-0 +81574-3 0 01532 2 35934 098.3281 138.4181 0007974 167.2456 192.8907 14.53277814125388 ITUPSAT 1 1 35935U 09051E 12034.78869633 +.00001955 +00000-0 +48744-3 0 08102 2 35935 098.3409 138.9326 0010243 153.1730 206.9928 14.52718433125341 TISAT 1 1 36799U 10035E 12034.82047434 +.00001385 +00000-0 +18348-3 0 06648 2 36799 098.0757 110.1555 0013908 246.1958 113.7778 14.81481944084590